sat.trackr.live / text

‹ back to catalog

ONEWEB-0185

NORAD 48220 · 2021-031L

PAYLOAD ACTIVE UNKNOWN

§ Identity

Operator
Country
UK
Launch date
2021-04-25
Launch site
VOSTO
Launch vehicle
Mass (kg)
RCS (m²)

Purposes: comms

External: N2YO · Heavens-Above · Gunter

§ Orbital elements

Epoch: 2026-05-24T22:13:07.588992Z

Period
109.55 min
Inclination
87.8953°
Eccentricity
0.0002025
Mean motion
13.14502745 rev/d
Perigee alt
1,204.3 km
Apogee alt
1,207.3 km
Semi-major
7,583.9 km
B*
-6.3097e-4
RAAN
294.3360°
Arg perigee
108.9876°
Mean anomaly
251.1473°
Rev number
24,519

§ Raw data

ONEWEB-01851 48220U 21031L   26144.92578228 -.00000221  00000+0 -63097-3 0  99972 48220  87.8953 294.3360 0002025 108.9876 251.1473 13.14502745245199

JSON: /api/v1/satellites/48220 · /tle

For live sub-satellite position, see the globe view (requires WebGL).

§ Visibility from observer

Set your observer location to see the next 7 days of passes ≥ 10°. The values pass through the URL so the page stays shareable.

No JS? Fill the form by hand. The geolocation button needs JavaScript.